C/2019 F1 ( ATLAS-Africano )

Japanese version
Home page
Updated on September 11, 2021

---------------------------------------------------------------------

* Profile

Discovery Date March 28 and 29, 2019
Magnitude 18.3 mag, 18.4 mag
Discoverer Asteroid Terrestrial-Impact Last Alert System (ATLAS) search program, B. M. Africano (Mount Lemmon Survey)

* Pictures

* Orbital Elements

Epoch 2021 July 5.0 TT = JDT 2459400.5
T 2021 June 22.86592 TT                                 Rudenko
q   3.5956960            (2000.0)            P               Q
z  -0.0010294      Peri.  251.13207     +0.09418753     +0.85665511
 +/-0.0000006      Node    38.72432     -0.27686906     +0.51192418
e   1.0037015      Incl.   54.17469     -0.95628041     -0.06384083
From 1302 observations 2019 Feb. 8-2021 May 13, mean residual 0".4.

* Finding Charts

* Magnitudes Graph

        m1 = 8.0 + 5 log d + 7.0 log r(t + 150)

---------------------------------------------------------------------

The orbital elements are published on M.P.E.C. 2021-L04.
The charts are made with StellaNavigator Ver.10 (AstroArts).
The magnitudes graphs are made with Comet for Windows.

---------------------------------------------------------------------

Copyright(C) Seiichi Yoshida (comet@aerith.net). All rights reserved.